Date,TemperatureHighF,TemperatureAvgF,TemperatureLowF,DewpointHighF,DewpointAvgF,DewpointLowF,HumidityHigh,HumidityAvg,HumidityLow,PressureMaxIn,PressureMinIn,WindSpeedMaxMPH,WindSpeedAvgMPH,GustSpeedMaxMPH,PrecipitationSumIn
2012-11-14,60,40,29,-100,-100,-100,0,0,100,0.00,40.00,0,-999,0,0.00
2012-11-15,55,41,29,-100,-100,-100,0,0,100,0.00,40.00,0,-999,0,0.00
2012-11-16,60,41,25,-100,-100,-100,0,0,100,0.00,40.00,0,-999,0,0.00
2012-11-17,70,48,27,-100,-100,-100,0,0,100,0.00,40.00,0,-999,0,0.00
2012-11-18,69,44,28,-100,-100,-100,0,0,100,0.00,40.00,0,-999,0,0.00
2012-11-19,69,43,31,-100,-100,-100,0,0,100,0.00,40.00,0,-999,0,0.00
2012-11-20,69,46,27,-100,-100,-100,0,0,100,0.00,40.00,0,-999,0,0.00
2012-11-21,74,47,26,-100,-100,-100,0,0,100,0.00,40.00,0,-999,0,0.00
2012-11-22,57,46,35,-100,-100,-100,0,0,100,0.00,40.00,0,-999,0,0.00
2012-11-23,55,33,22,-100,-100,-100,0,0,100,0.00,40.00,0,-999,0,0.00
2012-11-24,74,46,25,-100,-100,-100,0,0,100,0.00,40.00,0,-999,0,0.00
2012-11-25,58,39,26,-100,-100,-100,0,0,100,0.00,40.00,0,-999,0,0.00
2012-11-26,31,29,27,-100,-100,-100,0,0,100,0.00,40.00,0,-999,0,0.00
2012-11-27,68,39,22,-100,-100,-100,0,0,100,0.00,40.00,0,-999,0,0.00
2012-11-28,62,37,25,-100,-100,-100,0,0,100,0.00,40.00,0,-999,0,0.00
2012-11-29,73,43,27,-100,-100,-100,0,0,100,0.00,40.00,0,-999,0,0.00
2012-11-30,65,45,31,-100,-100,-100,0,0,100,0.00,40.00,0,-999,0,0.00
2012-12-1,74,55,43,-100,-100,-100,0,0,100,0.00,40.00,0,-999,0,0.00
2012-12-2,65,48,39,-100,-100,-100,0,0,100,0.00,40.00,0,-999,0,0.00
2012-12-3,56,48,31,-100,-100,-100,0,0,100,0.00,40.00,0,-999,0,0.00
2012-12-4,60,38,27,-100,-100,-100,0,0,100,0.00,40.00,0,-999,0,0.00
2012-12-5,68,48,34,-100,-100,-100,0,0,100,0.00,40.00,0,-999,0,0.00
2012-12-6,52,48,41,-100,-100,-100,0,0,100,0.00,40.00,0,-999,0,0.00
2012-12-7,53,41,29,-100,-100,-100,0,0,100,0.00,40.00,0,-999,0,0.00
2012-12-8,45,34,29,-100,-100,-100,0,0,100,0.00,40.00,0,-999,0,0.00
2012-12-9,33,26,17,-100,-100,-100,0,0,100,0.00,40.00,0,-999,0,0.00
2012-12-10,50,32,15,-100,-100,-100,0,0,100,0.00,40.00,0,-999,0,0.00
2012-12-11,39,31,28,-100,-100,-100,0,0,100,0.00,40.00,0,-999,0,0.00
2012-12-12,62,39,20,-100,-100,-100,0,0,100,0.00,40.00,0,-999,0,0.00
2012-12-13,65,44,33,-100,-100,-100,0,0,100,0.00,40.00,0,-999,0,0.00
2012-12-14,44,36,27,-100,-100,-100,0,0,100,0.00,40.00,0,-999,0,0.00
2012-12-15,50,37,29,-100,-100,-100,0,0,100,0.00,40.00,0,-999,0,0.00
2012-12-16,53,34,29,-100,-100,-100,0,0,100,0.00,40.00,0,-999,0,0.00
2012-12-17,60,33,24,-100,-100,-100,0,0,100,0.00,40.00,0,-999,0,0.00
2012-12-18,54,37,26,-100,-100,-100,0,0,100,0.00,40.00,0,-999,0,0.00
2012-12-19,34,30,25,-100,-100,-100,0,0,100,0.00,40.00,0,-999,0,0.00
2012-12-20,48,29,12,-100,-100,-100,0,0,100,0.00,40.00,0,-999,0,0.00
2012-12-21,64,37,20,-100,-100,-100,0,0,100,0.00,40.00,0,-999,0,0.00
2012-12-22,60,35,22,-100,-100,-100,0,0,100,0.00,40.00,0,-999,0,0.00
2012-12-23,51,32,22,-100,-100,-100,0,0,100,0.00,40.00,0,-999,0,0.00
2012-12-24,44,34,27,-100,-100,-100,0,0,100,0.00,40.00,0,-999,0,0.00
2012-12-25,24,19,11,-100,-100,-100,0,0,100,0.00,40.00,0,-999,0,0.00
2012-12-26,29,23,13,-100,-100,-100,0,0,100,0.00,40.00,0,-999,0,0.00
2012-12-27,43,25,17,-100,-100,-100,0,0,100,0.00,40.00,0,-999,0,0.00
2012-12-28,40,24,15,-100,-100,-100,0,0,100,0.00,40.00,0,-999,0,0.00
2012-12-29,43,29,15,-100,-100,-100,0,0,100,0.00,40.00,0,-999,0,0.00
2012-12-30,44,30,20,-100,-100,-100,0,0,100,0.00,40.00,0,-999,0,0.00
2012-12-31,31,26,22,-100,-100,-100,0,0,100,0.00,40.00,0,-999,0,0.00
2013-1-1,36,24,17,-100,-100,-100,0,0,100,0.00,40.00,0,-999,0,0.00